[[{"header":{"parameterUnit":"m.s-1","parameterCategory":1,"la1":30.2991,"la2":30.254,"lo1":-89.0895,"lo2":-89.0444,"dy":0.0017,"dx":0.0017,"nx":28,"ny":28,"refTime":"2025-02-25T09:00:00:Z","depth":0,"parameterNumber":2,"parameterNumberName":"U-component_of_WINDS"},"data":[0,0,0,0,0,0,0,0,0,0,0,0,0,0,0,0,0,0,0,0,0,0,0,0,0,0,0,0,0,0,0,0,0,0,0,0,0,0,0,0,0,0,0,0,0,0,0,0,0,0,0,0,0,0,0,0,0,0,0.9104,0.9104,0,0.914,0.914,0.9141,0.9161,0.9161,0.9161,0.9161,0.9196,0.9197,0.9198,0,0,0,0,0,0,0,0,0,0,0,0,0,0.9051,0.9052,0.9104,0.9104,0.9105,0.914,0.914,0.9141,0.9161,0.9161,0.9161,0.9161,0.9196,0.9197,0.9198,0,0,0,0,0,0,0,0,0,0,0,0,0,0.9079,0.9052,0.9104,0.9119,0.9121,0.914,0.914,0.9141,0.9161,0.9161,0.9161,0.9161,0.9195,0.9197,0.9198,0.9203,0,0,0.9202,0.9202,0,0,0,0,0,0,0,0,0.9078,0.9081,0.9116,0.9118,0.912,0.9146,0.9134,0.9162,0.9161,0.9146,0.9161,0.9162,0.9179,0.9182,0.9188,0.9205,0.9206,0.9202,0.9203,0.9203,0.9204,0,0,0,0,0,0,0,0.9076,0.908,0.9118,0.9117,0.9119,0.9124,0.9128,0.914,0.9161,0.9147,0.9149,0.9153,0.918,0.9187,0.9189,0.9207,0.9202,0.9203,0.9204,0.9204,0.923,0.923,0,0,0,0,0,0,0.9072,0.9078,0.9117,0.9119,0.9099,0.9125,0.9129,0.9138,0.9161,0.9165,0.9153,0.9154,0.9185,0.9188,0.919,0.9199,0.9203,0.9204,0.9205,0.9231,0.923,0.923,0,0,0,0,0,0,0.907,0.9075,0.9115,0.9099,0.9104,0.9125,0.9135,0.9138,0.9145,0.9165,0.9169,0.9156,0.9185,0.9189,0.92,0.92,0.9205,0.9206,0.9231,0.9231,0.923,0.9215,0,0,0,0,0,0,0.9069,0.9074,0.9077,0.9099,0.9105,0.9125,0.9135,0.9139,0.9147,0.9149,0.9169,0.9173,0.9185,0.9198,0.9201,0.9202,0.9207,0.9231,0.9231,0.923,0.9215,0.9214,0.9213,0,0,0,0,0,0.9067,0.907,0.9077,0.9081,0.9109,0.9125,0.9128,0.9143,0.9147,0.915,0.9163,0.9172,0.92,0.9199,0.9203,0.9204,0.9231,0.9231,0.923,0.9216,0.9214,0.9213,0,0,0,0,0,0,0.9046,0.9073,0.9081,0.9092,0.9106,0.9128,0.9132,0.9141,0.9154,0.9155,0.9172,0.9177,0.9187,0.9197,0.9195,0.9211,0.9216,0.9217,0.9204,0.9203,0.9201,0.9199,0.9208,0,0,0,0,0,0.9043,0.9055,0.9077,0.9085,0.9092,0.911,0.9118,0.9128,0.9143,0.9149,0.9163,0.9177,0.9189,0.9196,0.9208,0.9217,0.9222,0.922,0.9218,0.9217,0.9218,0.9223,0.9223,0.923,0.923,0.923,0,0,0.9037,0.9053,0.9059,0.9081,0.9093,0.9104,0.9115,0.9126,0.9134,0.9151,0.9163,0.9174,0.919,0.92,0.9206,0.9209,0.9217,0.9217,0.9216,0.9217,0.9223,0.9222,0.9222,0.923,0.923,0.923,0,0,0.903,0.9044,0.9051,0.9064,0.9083,0.9096,0.9097,0.9119,0.9127,0.914,0.9152,0.9162,0.9182,0.9194,0.9202,0.9201,0.921,0.9205,0.9198,0.9204,0.9203,0.9203,0.9203,0.9202,0.9205,0.9205,0.9205,0,0.9019,0.9037,0.9054,0.9065,0.9074,0.9091,0.9099,0.911,0.9131,0.9137,0.9141,0.9167,0.9179,0.9193,0.9193,0.9199,0.9201,0.9202,0.9202,0.9202,0.9202,0.9202,0.9202,0.9204,0.9204,0.9204,0.9204,0,0.9022,0.9034,0.9038,0.906,0.907,0.9079,0.9097,0.9105,0.9115,0.9128,0.9141,0.9156,0.9172,0.9176,0.9185,0.9191,0.9192,0.9199,0.9205,0.92,0.92,0.92,0.9203,0.9203,0.9203,0.9204,0,0,0.9002,0.9035,0.9036,0.9046,0.9069,0.9078,0.9088,0.9105,0.9111,0.9126,0.9134,0.9152,0.9158,0.9168,0.9179,0.9184,0.9182,0.919,0.919,0.9188,0.919,0.9184,0.9184,0.9189,0.9189,0.9189,0.9188,0,0.8999,0.9019,0.9035,0.9048,0.906,0.9077,0.9085,0.91,0.9112,0.9123,0.9136,0.9148,0.9156,0.9162,0.9168,0.9181,0.9183,0.9181,0.9196,0.9197,0.9191,0.9184,0.9179,0.9177,0.9188,0.9188,0.9189,0,0.8997,0.9012,0.9027,0.905,0.9055,0.9063,0.908,0.909,0.9107,0.9116,0.9127,0.9139,0.915,0.9155,0.9171,0.917,0.9177,0.9185,0.9185,0.9187,0.9192,0.9185,0.9177,0.9177,0.9189,0.9189,0.9189,0,0.8981,0.9005,0.9017,0.9026,0.9052,0.9057,0.9069,0.9086,0.9095,0.911,0.9116,0.9131,0.9139,0.9151,0.9167,0.9169,0.9181,0.9187,0.9188,0.9187,0.9189,0.9188,0.9182,0.9194,0.9194,0.9194,0.9194,0,0.8975,0.8983,0.9011,0.9018,0.9028,0.9047,0.9056,0.9069,0.9084,0.9094,0.911,0.9118,0.9139,0.915,0.9162,0.9174,0.9177,0.9184,0.9187,0.9182,0.9182,0.9187,0.9187,0.9194,0.9194,0.9194,0.9194,0,0.8958,0.8977,0.8991,0.9016,0.9023,0.9029,0.905,0.9057,0.9071,0.9083,0.9087,0.9108,0.9122,0.914,0.9159,0.9167,0.9177,0.9182,0.9172,0.9173,0.9173,0.9173,0.9169,0.9169,0.9182,0.9181,0.9181,0,0.8953,0.896,0.8986,0.8994,0.9005,0.9018,0.9028,0.9048,0.9057,0.9078,0.9083,0.9099,0.9112,0.9134,0.9151,0.9166,0.9171,0.9169,0.9173,0.9169,0.9171,0.917,0.9171,0.9167,0.9167,0.9167,0.9167,0,0.8941,0.8951,0.8965,0.8983,0.8994,0.9009,0.9024,0.903,0.9052,0.9062,0.9077,0.9088,0.9109,0.9124,0.9141,0.9152,0.9163,0.9165,0.9166,0.9161,0.9155,0.9158,0.9168,0.9165,0.9165,0.9165,0.9165,0.9165,0.893,0.8937,0.8957,0.8973,0.8987,0.9001,0.9009,0.9025,0.9038,0.9057,0.9068,0.9083,0.9101,0.9126,0.9136,0.9148,0.9152,0.9153,0.9154,0.9153,0.9152,0.9154,0.9152,0.9152,0.9152,0.9152,0.9152,0,0.8919,0.8933,0.8947,0.8969,0.8981,0.8992,0.9009,0.9019,0.9032,0.9048,0.9062,0.908,0.9095,0.9114,0.913,0.9136,0.9141,0.914,0.9139,0.9141,0.9148,0.9145,0.9135,0.9135,0.9135,0.9135,0.9135,0.9135,0.8914,0.8928,0.894,0.896,0.8974,0.899,0.8999,0.9012,0.9025,0.9045,0.9058,0.9071,0.9088,0.9106,0.9121,0.9126,0.9131,0.9128,0.9134,0.9139,0.9141,0.9142,0.914,0.9129,0.9129,0.9127,0.9127,0.9127]},{"header":{"parameterUnit":"m.s-1","parameterCategory":1,"la1":30.2991,"la2":30.254,"lo1":-89.0895,"lo2":-89.0444,"dy":0.0017,"dx":0.0017,"nx":28,"ny":28,"refTime":"2025-02-25T09:00:00:Z","depth":0,"parameterNumber":3,"parameterNumberName":"V-component_of_WINDS"},"data":[0,0,0,0,0,0,0,0,0,0,0,0,0,0,0,0,0,0,0,0,0,0,0,0,0,0,0,0,0,0,0,0,0,0,0,0,0,0,0,0,0,0,0,0,0,0,0,0,0,0,0,0,0,0,0,0,0,0,-0.1542,-0.1542,0,-0.1516,-0.1516,-0.1515,-0.1498,-0.1498,-0.1498,-0.1498,-0.147,-0.1469,-0.1469,0,0,0,0,0,0,0,0,0,0,0,0,0,-0.1578,-0.1577,-0.1542,-0.1542,-0.1542,-0.1516,-0.1516,-0.1515,-0.1499,-0.1498,-0.1498,-0.1498,-0.147,-0.1469,-0.1469,0,0,0,0,0,0,0,0,0,0,0,0,0,-0.1558,-0.1577,-0.1543,-0.153,-0.1529,-0.1516,-0.1516,-0.1515,-0.1499,-0.1498,-0.1498,-0.1498,-0.147,-0.147,-0.1469,-0.1465,0,0,-0.1466,-0.1465,0,0,0,0,0,0,0,0,-0.1559,-0.1557,-0.1533,-0.1531,-0.153,-0.151,-0.1518,-0.1498,-0.1499,-0.151,-0.1498,-0.1498,-0.1483,-0.1481,-0.1477,-0.1464,-0.1463,-0.1465,-0.1465,-0.1464,-0.1464,0,0,0,0,0,0,0,-0.1561,-0.1558,-0.1532,-0.1532,-0.153,-0.1526,-0.1523,-0.1514,-0.1498,-0.1509,-0.1508,-0.1505,-0.1483,-0.1478,-0.1476,-0.1462,-0.1465,-0.1465,-0.1464,-0.1464,-0.1445,-0.1446,0,0,0,0,0,0,-0.1564,-0.1559,-0.1533,-0.1531,-0.1544,-0.1525,-0.1522,-0.1517,-0.1498,-0.1495,-0.1505,-0.1504,-0.1479,-0.1477,-0.1475,-0.147,-0.1464,-0.1463,-0.1463,-0.1445,-0.1445,-0.1446,0,0,0,0,0,0,-0.1565,-0.1562,-0.1534,-0.1545,-0.1541,-0.1525,-0.1519,-0.1516,-0.1511,-0.1495,-0.1492,-0.1503,-0.1479,-0.1476,-0.1468,-0.1468,-0.1463,-0.1462,-0.1445,-0.1445,-0.1446,-0.1459,0,0,0,0,0,0,-0.1566,-0.1562,-0.1561,-0.1545,-0.154,-0.1527,-0.1519,-0.1516,-0.151,-0.1508,-0.1492,-0.1489,-0.1479,-0.1469,-0.1467,-0.1467,-0.1461,-0.1445,-0.1445,-0.1445,-0.1459,-0.146,-0.1461,0,0,0,0,0,-0.1567,-0.1566,-0.1561,-0.1558,-0.1538,-0.1528,-0.1525,-0.1513,-0.151,-0.1508,-0.1498,-0.149,-0.1469,-0.1469,-0.1466,-0.1465,-0.1445,-0.1445,-0.1445,-0.1458,-0.146,-0.1461,0,0,0,0,0,0,-0.1582,-0.1563,-0.1558,-0.1551,-0.1541,-0.1525,-0.1522,-0.1515,-0.1506,-0.1505,-0.149,-0.1487,-0.148,-0.1472,-0.1472,-0.1461,-0.1456,-0.1456,-0.1467,-0.1468,-0.1469,-0.1471,-0.146,0,0,0,0,0,-0.1584,-0.1577,-0.1561,-0.1557,-0.1552,-0.1538,-0.1533,-0.1525,-0.1514,-0.1509,-0.1498,-0.1488,-0.1479,-0.1473,-0.1464,-0.1458,-0.1454,-0.1456,-0.1457,-0.1458,-0.1458,-0.1454,-0.1455,-0.1446,-0.1446,-0.1446,0,0,-0.1589,-0.1578,-0.1574,-0.1559,-0.1551,-0.1543,-0.1535,-0.1527,-0.1522,-0.1508,-0.1499,-0.1491,-0.1478,-0.1471,-0.1467,-0.1464,-0.1459,-0.1458,-0.1459,-0.1458,-0.1454,-0.1455,-0.1456,-0.1447,-0.1447,-0.1447,0,0,-0.1594,-0.1585,-0.158,-0.1572,-0.1559,-0.155,-0.1549,-0.1534,-0.1528,-0.1519,-0.1509,-0.1502,-0.1487,-0.1478,-0.1471,-0.1474,-0.1466,-0.1471,-0.1477,-0.1473,-0.1474,-0.1474,-0.1475,-0.1475,-0.1471,-0.1471,-0.1471,0,-0.1601,-0.159,-0.1579,-0.1572,-0.1566,-0.1554,-0.1549,-0.1541,-0.1526,-0.1521,-0.1518,-0.1499,-0.149,-0.148,-0.1481,-0.1476,-0.1474,-0.1473,-0.1475,-0.1475,-0.1475,-0.1476,-0.1476,-0.1472,-0.1472,-0.1472,-0.1472,0,-0.16,-0.1592,-0.159,-0.1576,-0.1569,-0.1564,-0.1551,-0.1546,-0.1539,-0.153,-0.1521,-0.1509,-0.1498,-0.1495,-0.1488,-0.1484,-0.1483,-0.1478,-0.1472,-0.1477,-0.1477,-0.1477,-0.1473,-0.1473,-0.1472,-0.1472,0,0,-0.1612,-0.1592,-0.1592,-0.1585,-0.157,-0.1564,-0.1558,-0.1547,-0.1543,-0.1533,-0.1527,-0.1515,-0.151,-0.1503,-0.1494,-0.1491,-0.1493,-0.1486,-0.1486,-0.1487,-0.1489,-0.1493,-0.1493,-0.1489,-0.1489,-0.1489,-0.149,0,-0.1614,-0.1603,-0.1593,-0.1584,-0.1577,-0.1566,-0.1561,-0.1551,-0.1543,-0.1535,-0.1526,-0.1518,-0.1512,-0.1508,-0.1504,-0.1494,-0.1493,-0.1494,-0.1483,-0.1482,-0.1485,-0.1493,-0.1497,-0.1499,-0.149,-0.149,-0.149,0,-0.1615,-0.1606,-0.1598,-0.1584,-0.1581,-0.1576,-0.1565,-0.1558,-0.1547,-0.1541,-0.1534,-0.1525,-0.1518,-0.1514,-0.1503,-0.1504,-0.1498,-0.1493,-0.1493,-0.1491,-0.1486,-0.1491,-0.1499,-0.1499,-0.149,-0.149,-0.149,0,-0.1625,-0.1611,-0.1604,-0.1599,-0.1582,-0.1579,-0.1572,-0.1561,-0.1555,-0.1546,-0.1542,-0.1531,-0.1526,-0.1518,-0.1507,-0.1505,-0.1497,-0.1492,-0.1492,-0.1492,-0.149,-0.149,-0.1497,-0.1488,-0.1488,-0.1488,-0.1488,0,-0.1628,-0.1623,-0.1608,-0.1603,-0.1598,-0.1586,-0.158,-0.1572,-0.1563,-0.1556,-0.1546,-0.154,-0.1526,-0.1519,-0.151,-0.1503,-0.15,-0.1495,-0.1493,-0.1496,-0.1496,-0.1492,-0.1491,-0.1488,-0.1488,-0.1488,-0.1488,0,-0.1637,-0.1627,-0.1618,-0.1604,-0.1601,-0.1597,-0.1584,-0.158,-0.1571,-0.1563,-0.1561,-0.1547,-0.1538,-0.1527,-0.1514,-0.1508,-0.1501,-0.1498,-0.1505,-0.1503,-0.1504,-0.1504,-0.1507,-0.1507,-0.1499,-0.1499,-0.1499,0,-0.164,-0.1636,-0.1622,-0.1617,-0.161,-0.1603,-0.1597,-0.1585,-0.158,-0.1567,-0.1564,-0.1554,-0.1545,-0.1531,-0.152,-0.151,-0.1506,-0.1508,-0.1504,-0.1507,-0.1505,-0.1505,-0.1505,-0.1509,-0.1509,-0.1509,-0.1509,0,-0.1646,-0.1641,-0.1633,-0.1623,-0.1616,-0.1608,-0.1599,-0.1596,-0.1583,-0.1577,-0.1567,-0.1561,-0.1548,-0.1538,-0.1527,-0.1519,-0.1512,-0.151,-0.151,-0.1512,-0.1516,-0.1514,-0.1507,-0.151,-0.151,-0.151,-0.151,-0.151,-0.1651,-0.1647,-0.1636,-0.1628,-0.162,-0.1612,-0.1607,-0.1599,-0.1591,-0.1579,-0.1573,-0.1564,-0.1553,-0.1537,-0.153,-0.1522,-0.152,-0.1519,-0.1518,-0.1518,-0.1519,-0.1518,-0.152,-0.152,-0.152,-0.152,-0.152,0,-0.1656,-0.1648,-0.1641,-0.1629,-0.1623,-0.1617,-0.1607,-0.1602,-0.1594,-0.1584,-0.1576,-0.1566,-0.1556,-0.1545,-0.1535,-0.1531,-0.1527,-0.1528,-0.1528,-0.1527,-0.1522,-0.1524,-0.1532,-0.1532,-0.1532,-0.1532,-0.1532,-0.1532,-0.1657,-0.165,-0.1644,-0.1633,-0.1626,-0.1617,-0.1612,-0.1604,-0.1597,-0.1586,-0.1578,-0.1571,-0.156,-0.1549,-0.154,-0.1537,-0.1534,-0.1536,-0.1532,-0.1528,-0.1527,-0.1526,-0.1527,-0.1536,-0.1536,-0.1537,-0.1537,-0.1537]}]]